Location: Ballingbuur
(53.0000°N, 5.7667°E)
Time: 20:39:00
(UTC+00:00)

Sich 1 - Pass Details

Date: 29 November 2020
Orbit: 593 x 626 km, 82.5° (Epoch: 25 January)

Event Time Altitude Azimuth Distance (km) Brightness Sun altitude
Rises 06:30:02 0° 205° (SSW) 2,899 6.5 -7.9°
Reaches altitude 10° 06:32:19 10° 211° (SSW) 1,999 5.6 -7.6°
Maximum altitude 06:36:37 48° 286° (WNW) 826 3.3 -7.0°
Drops below altitude 10° 06:40:57 10° 2° (N) 2,012 5.4 -6.4°
Sets 06:43:15 0° 8° (N) 2,922 6.3 -6.1°
